Weather History for Marshfield, WI

Change the Weather History Date:

Sunday, October 6, 2013

  Actual Average Record
Temperature  
Mean Temperature 48 °F -  
Max Temperature 57 °F 61 °F 86 °F (1963)
Min Temperature 42 °F 39 °F 18 °F (1935)
Degree Days  
Heating Degree Days 16    
Moisture  
Dew Point 41 °F    
Average Humidity 79    
Maximum Humidity 100    
Minimum Humidity 47    
Precipitation  
Precipitation 0.00 in - - ()
Sea Level Pressure  
Sea Level Pressure 29.71 in    
Wind  
Wind Speed 5 mph (West)    
Max Wind Speed 13 mph    
Max Gust Speed 20 mph    
Visibility 8 miles    
Events Fog    
Averages and records for this station are not official NWS values.
T = Trace of Precipitation, MM = Missing Value Source: NWS Daily Summary

Daily Weather History Graph

Daily Weather History Graph

Search for Another Location

Airport:

Trip Planner

Search our weather history database for the weather conditions in past years. The results will help you decide how hot, cold, wet, or windy it might be!

Date:

Astronomy

Oct. 06, 2013 Rise Set
Actual Time 7:05 AM CDT 6:31 PM CDT
Civil Twilight 6:35 AM CDT 7:00 PM CDT
Nautical Twilight 6:02 AM CDT 7:34 PM CDT
Astronomical Twilight 5:28 AM CDT 8:08 PM CDT
Moon 8:55 AM CDT (10/6) 7:24 PM CDT (10/6)
Length of Visible Light 12h 24m
Length of Day
11h 26m
Waxing Crescent, 3% of the Moon is Illuminated
Oct 6
Waxing Crescent
Oct 11
First Quarter
Oct 18
Full
Oct 26
Last Quarter
Nov 3
New

Hourly Weather History & Observations

Time (CDT) Temp. Windchill Dew Point Humidity Pressure Visibility Wind Dir Wind Speed Gust Speed Precip Events Conditions
12:54 AM 51.1 °F - 48.0 °F 89% 29.73 in 10.0 mi West 4.6 mph - N/A   Clear
1:54 AM 48.0 °F - 46.9 °F 96% 29.74 in 4.0 mi SW 5.8 mph - N/A   Clear
2:54 AM 48.0 °F - 45.0 °F 89% 29.72 in 10.0 mi West 5.8 mph - N/A   Clear
3:54 AM 46.0 °F 43.1 °F 44.1 °F 93% 29.73 in 10.0 mi SW 5.8 mph - N/A   Clear
4:54 AM 45.0 °F - 43.0 °F 93% 29.71 in 10.0 mi Calm Calm - N/A   Clear
5:32 AM 44.6 °F - 42.8 °F 93% 29.70 in 1.8 mi Calm Calm - N/A   Clear
5:37 AM 42.8 °F - 42.8 °F 100% 29.70 in 0.8 mi Calm Calm - N/A   Clear
5:42 AM 42.8 °F - 42.8 °F 100% 29.69 in 1.2 mi Calm Calm - N/A   Clear
5:54 AM 43.0 °F - 42.1 °F 97% 29.71 in 0.8 mi Calm Calm - N/A   Clear
6:05 AM 42.8 °F 39.3 °F 41.0 °F 93% 29.70 in 0.5 mi SW 5.8 mph - N/A Fog Fog
6:11 AM 42.8 °F 40.1 °F 41.0 °F 93% 29.71 in 1.2 mi WSW 4.6 mph - N/A   Partly Cloudy
6:15 AM 42.8 °F 40.1 °F 41.0 °F 93% 29.71 in 4.0 mi WSW 4.6 mph - N/A   Clear
6:54 AM 42.1 °F - 39.0 °F 89% 29.73 in 10.0 mi Calm Calm - N/A   Clear
7:54 AM 44.1 °F 42.5 °F 39.9 °F 85% 29.73 in 10.0 mi WSW 3.5 mph - N/A   Clear
8:54 AM 46.9 °F - 42.1 °F 83% 29.72 in 10.0 mi West 5.8 mph - N/A   Clear
9:54 AM 51.1 °F - 42.1 °F 71% 29.72 in 10.0 mi West 4.6 mph - N/A   Clear
10:54 AM 53.1 °F - 37.0 °F 55% 29.72 in 10.0 mi West 9.2 mph - N/A   Clear
11:54 AM 55.0 °F - 37.9 °F 53% 29.72 in 10.0 mi WNW 9.2 mph - N/A   Clear
12:54 PM 55.9 °F - 36.0 °F 47% 29.70 in 10.0 mi SW 12.7 mph - N/A   Clear
1:54 PM 55.9 °F - 37.9 °F 51% 29.69 in 10.0 mi NW 10.4 mph - N/A   Clear
2:54 PM 55.0 °F - 37.9 °F 53% 29.69 in 10.0 mi Variable 3.5 mph - N/A   Clear
3:54 PM 54.0 °F - 37.0 °F 53% 29.69 in 10.0 mi WSW 5.8 mph - N/A   Clear
4:54 PM 53.1 °F - 37.9 °F 57% 29.69 in 10.0 mi WSW 4.6 mph - N/A   Clear
5:54 PM 52.0 °F - 39.0 °F 61% 29.71 in 10.0 mi West 4.6 mph - N/A   Clear
6:54 PM 48.9 °F - 39.0 °F 69% 29.72 in 10.0 mi WSW 5.8 mph - N/A   Scattered Clouds
7:54 PM 48.9 °F - 41.0 °F 74% 29.73 in 10.0 mi West 4.6 mph - N/A   Overcast
8:54 PM 48.0 °F - 39.9 °F 74% 29.73 in 10.0 mi West 6.9 mph - N/A   Mostly Cloudy
9:54 PM 48.9 °F - 42.1 °F 77% 29.74 in 10.0 mi WNW 9.2 mph - N/A   Overcast
10:47 PM 48.2 °F - 42.8 °F 82% 29.71 in 10.0 mi WNW 11.5 mph - N/A   Mostly Cloudy
10:54 PM 48.9 °F - 43.0 °F 80% 29.73 in 10.0 mi WNW 10.4 mph - N/A   Mostly Cloudy
11:16 PM 48.2 °F - 44.6 °F 87% 29.71 in 10.0 mi WNW 12.7 mph 19.6 mph N/A   Overcast
11:43 PM 48.2 °F - 44.6 °F 87% 29.70 in 10.0 mi WNW 9.2 mph - N/A   Overcast
11:54 PM 48.9 °F - 46.0 °F 90% 29.72 in 10.0 mi WNW 12.7 mph - N/A   Overcast